FW1502 Weather Reports


Display with metric or nautical units.
time (UTC)temp
F
wind
direction
speed
MPH
gust
MPH
rain 1hr
in
rain 24hr
in
rain mn
in
humidity
%
barometer
mb
20210513083054 52 313 5.0 10.0 0.00 0.13 0.00 86 1022.2
20210513081534 52 298 4.0 9.0 0.00 0.13 0.00 85 1022.1
20210513080104 52 292 4.0 10.0 0.00 0.13 0.00 84 1022.1
20210513074618 52 315 3.0 9.0 0.00 0.13 0.00 84 1022.0
20210513073028 52 316 3.0 9.0 0.00 0.13 0.00 85 1022.1
20210513071534 51 284 3.0 8.0 0.00 0.13 0.00 86 1022.1
20210513070021 51 308 3.0 9.0 0.00 0.13 0.00 87 1022.2
20210513064509 51 340 3.0 8.0 0.00 0.13 0.00 88 1022.2
20210513063008 50 313 3.0 5.0 0.00 0.13 0.00 88 1022.2
20210513061510 50 319 2.0 6.0 0.00 0.13 0.00 89 1022.2
20210513060008 50 325 3.0 5.0 0.00 0.13 0.00 88 1022.4
20210513054502 50 303 2.0 5.0 0.00 0.13 0.00 87 1022.6
20210513051614 50 266 4.0 8.0 0.00 0.13 0.00 88 1022.9
20210513050144 50 282 4.0 7.0 0.00 0.13 0.00 88 1022.9
20210513044611 51 280 2.0 4.0 0.00 0.13 0.00 87 1022.9
20210513043136 51 289 3.0 5.0 0.00 0.13 0.00 87 1023.1
20210513041634 50 300 2.0 4.0 0.00 0.13 0.00 85 1023.0
20210513040140 51 310 2.0 4.0 0.00 0.13 0.00 83 1023.1
20210513034645 51 305 2.0 4.0 0.00 0.13 0.13 83 1023.0
20210513033137 51 328 2.0 4.0 0.00 0.13 0.13 83 1023.0
20210513031555 51 318 2.0 6.0 0.00 0.13 0.13 82 1023.3
20210513030242 51 320 2.0 5.0 0.00 0.13 0.13 82 1023.4
20210513024723 50 335 3.0 5.0 0.00 0.13 0.13 81 1023.4
20210513023244 51 307 1.0 4.0 0.00 0.13 0.13 80 1023.3
20210513021558 51 339 3.0 7.0 0.00 0.13 0.13 79 1023.2
20210513020144 51 307 4.0 9.0 0.00 0.13 0.13 79 1023.2
20210513014654 51 321 2.0 8.0 0.00 0.13 0.13 79 1023.4
20210513013041 51 355 4.0 8.0 0.00 0.13 0.13 78 1022.9
20210513011639 51 325 3.0 8.0 0.00 0.13 0.13 78 1023.1
20210513010233 51 360 3.0 9.0 0.00 0.13 0.13 78 1023.1
20210513004610 52 316 4.0 9.0 0.00 0.13 0.13 77 1023.2
20210513003130 52 340 4.0 12.0 0.00 0.13 0.13 77 1023.0
20210513001642 52 351 5.0 11.0 0.00 0.13 0.13 77 1023.0
20210513000056 52 12 2.0 11.0 0.00 0.13 0.13 78 1022.9
20210512234611 52 25 7.0 13.0 0.00 0.13 0.13 79 1022.7
20210512233034 51 355 5.0 10.0 0.00 0.13 0.13 80 1022.6
20210512231603 51 38 2.0 8.0 0.00 0.13 0.13 81 1022.7
20210512230039 51 28 2.0 9.0 0.00 0.13 0.13 81 1022.6
20210512224543 50 12 3.0 10.0 0.00 0.13 0.13 81 1022.7
20210512223046 50 41 7.0 11.0 0.00 0.13 0.13 81 1022.6
20210512221627 50 14 5.0 10.0 0.00 0.13 0.13 81 1022.8
20210512220100 50 17 7.0 12.0 0.01 0.13 0.13 81 1023.0
20210512214548 49 28 5.0 11.0 0.01 0.13 0.13 80 1023.1
20210512213051 49 12 5.0 12.0 0.02 0.13 0.13 82 1023.0
20210512211608 49 27 6.0 11.0 0.03 0.13 0.13 83 1023.2
20210512210033 49 35 6.0 12.0 0.02 0.12 0.12 83 1023.2
20210512204622 48 16 4.0 10.0 0.03 0.12 0.12 84 1023.0
20210512203107 48 43 6.0 12.0 0.03 0.11 0.11 84 1022.8
20210512201534 49 38 5.0 9.0 0.02 0.10 0.10 86 1023.0
20210512200037 49 355 3.0 9.0 0.03 0.10 0.10 86 1023.1
20210512194542 49 39 5.0 10.0 0.03 0.09 0.09 86 1023.1
20210512193025 49 30 5.0 9.0 0.02 0.08 0.08 86 1023.7
20210512191539 49 355 5.0 12.0 0.03 0.08 0.08 85 1023.8
20210512190038 49 44 3.0 7.0 0.02 0.07 0.07 84 1024.0
20210512184617 49 18 3.0 10.0 0.02 0.06 0.06 82 1024.1
20210512183048 49 53 5.0 12.0 0.03 0.06 0.06 81 1024.3
20210512181523 49 19 5.0 12.0 0.02 0.05 0.05 82 1024.1
20210512180048 49 36 6.0 13.0 0.02 0.05 0.05 80 1024.2
20210512174548 49 351 7.0 12.0 0.02 0.04 0.04 79 1024.2
20210512173021 49 11 7.0 12.0 0.01 0.03 0.03 80 1024.4
20210512171607 49 46 6.0 13.0 0.02 0.03 0.03 79 1024.3
20210512170033 50 11 7.0 14.0 0.02 0.03 0.03 78 1024.6
20210512164533 50 351 8.0 17.0 0.02 0.02 0.02 77 1024.7
20210512163025 50 343 8.0 14.0 0.02 0.02 0.02 77 1024.6
20210512161503 51 355 8.0 15.0 0.01 0.01 0.01 78 1024.6
20210512160004 51 5 10.0 17.0 0.01 0.01 0.01 76 1024.7
20210512154657 53 12 10.0 17.0 0.00 0.00 0.00 73 1024.9
20210512153159 54 22 11.0 20.0 0.00 0.00 0.00 69 1024.7
20210512151731 55 55 11.0 20.0 0.00 0.00 0.00 66 1024.7
20210512150129 56 331 12.0 20.0 0.00 0.00 0.00 60 1024.5
20210512144606 56 321 13.0 21.0 0.00 0.00 0.00 59 1024.5
20210512143151 57 355 13.0 19.0 0.00 0.00 0.00 60 1024.4
20210512141709 57 24 10.0 19.0 0.00 0.00 0.00 62 1024.1
20210512140206 57 9 12.0 20.0 0.00 0.00 0.00 61 1023.8
20210512134624 57 9 11.0 21.0 0.00 0.00 0.00 63 1023.6
20210512133125 57 32 12.0 20.0 0.00 0.00 0.00 63 1023.4
20210512131648 57 21 13.0 21.0 0.00 0.00 0.00 61 1023.6
20210512130137 57 20 14.0 20.0 0.00 0.00 0.00 64 1023.2
20210512124820 58 34 12.0 21.0 0.00 0.00 0.00 69 1023.1
20210512123152 58 30 13.0 22.0 0.00 0.00 0.00 66 1023.0
20210512121707 58 29 14.0 22.0 0.00 0.00 0.00 63 1023.1
20210512120102 58 334 13.0 22.0 0.00 0.00 0.00 65 1023.0
20210512114548 58 19 14.0 21.0 0.00 0.00 0.00 66 1022.6
20210512113117 58 360 12.0 23.0 0.00 0.00 0.00 66 1022.5
20210512111741 58 18 14.0 23.0 0.00 0.00 0.00 68 1022.4
20210512110048 58 336 12.0 21.0 0.00 0.00 0.00 71 1022.2
20210512104603 58 75 11.0 22.0 0.00 0.00 0.00 71 1021.9
20210512103057 58 342 15.0 24.0 0.00 0.00 0.00 69 1021.4
20210512101600 58 339 15.0 23.0 0.00 0.00 0.00 71 1021.3
20210512100113 58 40 12.0 24.0 0.00 0.00 0.00 73 1021.0
20210512094615 58 39 14.0 24.0 0.00 0.00 0.00 73 1020.5
20210512093049 58 9 15.0 26.0 0.00 0.00 0.00 78 1020.4
20210512091519 57 36 15.0 25.0 0.00 0.00 0.00 84 1020.5
20210512090057 55 27 14.0 19.0 0.00 0.00 0.00 92 1020.6
20210512084546 54 14 7.0 14.0 0.00 0.00 0.00 93 1020.9